Regional Weather Roundup
Issued by NWS

Home | Current Version | Previous Version | Graphics & Text | Print | Product List | Glossary On
Versions: 1 2 3 4 5 6 7 8 9 10 11 12 13 14 15 16 17 18 19 20 21 22 23 24 25 26 27 28 29 30 31 32 33 34 35 36 37 38 39 40 41 42 43 44 45 46 47 48 49 50
000
ASUS45 KBOU 232207
RWRCO

WEATHER ROUNDUP FOR COLORADO
NATIONAL WEATHER SERVICE DENVER/BOULDER CO
400 PM MDT MON MAY 23 2016

NOTE: "FAIR" INDICATES FEW OR NO CLOUDS BELOW 12000 FEET WITH NO
SIGNIFICANT WEATHER AND/OR OBSTRUCTIONS TO VISIBILITY.

COZ001>005-013-030-031-232300-
...NORTHWEST COLORADO...

CITY           SKY/WX    TMP DP  RH WIND       PRES   REMARKS
CRAIG          FAIR      64  29  26 NW9       29.91F
HAYDEN         FAIR      59  27  29 N7        29.93F
MEEKER         PTSUNNY   66  24  20 NW7       29.90S
MOUNT WERNER   NOT AVBL
STEAMBOAT SPGS FAIR      57  28  33 W12       29.95S
WALDEN         FAIR      55  23  28 SW16G22   29.99S
$$

COZ006>008-011-232300-
...WEST CENTRAL VALLEYS...

CITY           SKY/WX    TMP DP  RH WIND       PRES   REMARKS
GRAND JUNCTION FAIR      72  22  15 VRB7      29.82F
MONTROSE       FAIR      73  17  12 W20G25    29.87F
EAGLE          MOSUNNY   64  19  17 S12G24    29.92S
RIFLE          PTSUNNY   68  23  18 S12       29.85S
DELTA          FAIR      77  14   9 S13G24    29.83F
NUCLA          FAIR      72  12  10 SW17G28   29.94S
$$

COZ017>023-064>068-232300-
...SOUTHWEST COLORADO...

CITY           SKY/WX    TMP DP  RH WIND       PRES   REMARKS
DURANGO        FAIR      69  22  16 SW12      29.96F
CORTEZ         FAIR      71  17  12 S7        29.92F
PAGOSA SPRINGS FAIR      65  13  13 SW15G23   30.02F
TELLURIDE      PTSUNNY   58  16  19 S7G17     30.05F
WOLF CREEK PAS FAIR      39  18  41 SW39G47   30.21S
$$

COZ009-010-012-014-032>034-037-058>063-232300-
...CENTRAL COLORADO...

CITY           SKY/WX    TMP DP  RH WIND       PRES   REMARKS
ASPEN          FAIR      61  15  16 MISG      29.94S
BUENA VISTA    FAIR      66  10  11 W6G29     29.93S
COPPER MTN     NOT AVBL
BERTHOUD PASS  FAIR      34  27  75 NW8G26    30.17R WCI  27
COTTONWOOD PAS FAIR      55   0  10 W15G29    30.04S
GUNNISON       FAIR      63  19  19 W13G21    29.97S
KREMMLING      FAIR      63  14  15 W13G26    29.94S
LEADVILLE      PTSUNNY   50  14  23 S16G26    30.03F
MONARCH PASS   FAIR      43  16  33 W25G44    30.25S
SALIDA         FAIR      71  15  12 W10G18    29.97S
SUNLIGHT       PTSUNNY   48  23  37 CALM      30.13S
WILKERSON PASS CLOUDY    43  23  45 SW7       30.15R
$$

COZ069>075-232300-
...SAN LUIS VALLEY/SANGRE DE CRISTO MOUNTAINS...

CITY           SKY/WX    TMP DP  RH WIND       PRES   REMARKS
ALAMOSA        FAIR      68  20  16 SW22G30   29.96F
LA VETA PASS   FAIR      59  21  23 S15G32    30.09F
SAGUACHE       FAIR      68  14  12 W16G26    29.95F
$$

COZ035-036-038>040-232300-
...NORTHERN COLORADO FRONT RANGE...

CITY           SKY/WX    TMP DP  RH WIND       PRES   REMARKS
DENVER INTL AP LGT RAIN  59  45  59 NE16      29.89F
DMNS CITY PARK   N/A     61  41  47 E15       29.87F
AURORA         PTSUNNY   59  42  51 NE14      29.90F
FRONT RANGE AP PTSUNNY   59  43  55 N16G28    29.91R
ERIE MUNI ARPT FAIR      65  42  43 E15       29.87F
BOULDER MUN AP FAIR      64  41  42 E6        29.86F
CENTENNIAL     PTSUNNY   62  39  42 N12       29.90F
BROOMFIELD     PTSUNNY   64  43  45 NE9G16    29.89F
FORT COLLINS   FAIR      39  39 100 SE13G22   29.87F
LONGMONT       FAIR      68  43  40 SE8G22    29.87F
$$

COZ041-046-047-076>085-087-088-232300-
...PIKES PEAK/PALMER DIVIDE AND SOUTHERN FOOTHILLS...

CITY           SKY/WX    TMP DP  RH WIND       PRES   REMARKS
COLO. SPRINGS  FAIR      70  30  22 S17G24    29.89F
A. F. ACADEMY  FAIR      66  30  26 S17G23    29.88F
SCHRIEVER AFB  NOT AVBL
ELLICOTT       FAIR     N/A N/A N/A SW9G24    29.88F
FALCON         FAIR      67  28  22 MISG      29.92F
FORT CARSON    FAIR      70  34  26 VRB7      29.86F
LIMON          FAIR      70  32  24 SE10G26   29.86F
MONUMENT HILL  FAIR      61  32  33 W9        29.94F
TRINIDAD       FAIR      74  35  24 VRB3      29.83F
$$

COZ042>045-048>051-090-091-232300-
...NORTHEAST COLORADO...

CITY           SKY/WX    TMP DP  RH WIND       PRES   REMARKS
GREELEY ARPT   FAIR      57  43  58 SE14G20   29.90S
AKRON          FAIR      71  34  25 S12G21    29.86F
BURLINGTON     FAIR      73  38  27 SE9G17    29.84F
WRAY           FAIR      77  36  22 SE13      29.83F
STERLING       FAIR      70  37  30 S9        29.84S
HOLYOKE        FAIR      79  34  19 SE6       29.83S
FORT MORGAN    CLOUDY    63  36  36 W5        29.90R
$$

COZ086-089-092>099-232300-
...SOUTHEAST COLORADO...

CITY           SKY/WX    TMP DP  RH WIND       PRES   REMARKS
PUEBLO         FAIR      78  36  21 SE10G21   29.78F
LA JUNTA       FAIR      79  36  21 E5        29.78F
LAMAR          FAIR      80  50  34 SE9       29.76F
SPRINGFIELD      N/A     80  43  26 S10G17    29.79F
$$



USA.gov is the U.S. government's official web portal to all federal, state and local government web resources and services.